CW4645 Weather Reports


time (UTC)temp
C
wind
direction
speed
KPH
gust
KPH
rain 1hr
cm
rain 24hr
cm
rain mn
cm
humidity
%
barometer
mb
20260506102825 16 40 0.0 0.0 0.00 0.00 0.00 87 1013.1
20260506101327 16 40 0.0 0.0 0.00 0.00 0.00 87 1013.0
20260506095836 16 40 0.0 0.0 0.00 0.00 0.00 87 1013.0
20260506094327 16 40 0.0 0.0 0.00 0.00 0.00 87 1013.3
20260506092825 16 40 0.0 0.0 0.00 0.00 0.00 86 1013.5
20260506091321 16 40 0.0 0.0 0.00 0.00 0.00 86 1013.5
20260506085843 16 40 0.0 0.0 0.00 0.00 0.00 85 1013.5
20260506084332 16 40 0.0 0.0 0.00 0.00 0.00 85 1013.6
20260506082818 16 40 0.0 0.0 0.00 0.00 0.00 84 1013.8
20260506081337 16 40 0.0 0.0 0.00 0.00 0.00 83 1014.0
20260506072816 16 40 0.0 0.0 0.00 0.00 0.00 82 1013.8
20260506071358 17 40 0.0 3.2 0.00 0.00 0.00 81 1013.7
20260506061357 17 15 0.0 6.4 0.00 0.00 0.00 79 1013.8
20260506051352 17 32 1.6 6.4 0.00 0.00 0.00 76 1014.0
20260506044332 18 5 1.6 6.4 0.00 0.00 0.00 76 1014.4
20260506042840 18 22 3.2 6.4 0.00 0.00 0.00 76 1014.3
20260506041333 18 28 1.6 6.4 0.00 0.00 0.00 75 1014.4
20260506035835 18 5 4.8 12.9 0.00 0.00 0.00 74 1014.6
20260506034325 18 49 1.6 6.4 0.00 0.00 0.00 73 1014.6
20260506032853 19 74 4.8 9.7 0.00 0.00 0.00 72 1014.2
20260506031338 19 17 4.8 8.0 0.00 0.00 0.00 70 1014.1
20260506025832 20 342 4.8 11.3 0.00 0.00 0.00 68 1014.1
20260506024333 20 42 4.8 9.7 0.00 0.00 0.00 67 1014.0
20260506022831 20 3 4.8 8.0 0.00 0.00 0.00 66 1014.2
20260506021324 21 26 3.2 9.7 0.00 0.00 0.00 65 1014.3
20260506015836 21 22 1.6 14.5 0.00 0.00 0.00 64 1014.1
20260506014333 21 21 3.2 8.0 0.00 0.00 0.00 64 1013.9
20260506012819 21 355 0.0 6.4 0.00 0.00 0.00 61 1013.6
20260506011330 21 30 1.6 6.4 0.00 0.00 0.00 61 1013.4
20260506005840 20 34 0.0 0.0 0.00 0.00 0.00 61 1013.0
20260506004356 20 34 0.0 0.0 0.00 0.00 0.00 63 1012.6
20260506002847 21 34 0.0 0.0 0.00 0.00 0.00 57 1012.5
20260506001330 22 34 0.0 0.0 0.00 0.00 0.00 52 1012.5
20260505235821 23 34 0.0 0.0 0.00 0.00 0.00 49 1012.5
20260505234433 23 34 0.0 0.0 0.00 0.00 0.00 47 1012.4
20260505232923 24 34 0.0 1.6 0.00 0.00 0.00 47 1012.5
20260505231419 25 34 0.0 6.4 0.00 0.00 0.00 46 1012.5
20260505225933 25 16 0.0 1.6 0.00 0.00 0.00 45 1012.6
20260505224448 25 27 0.0 1.6 0.00 0.00 0.00 45 1012.5
20260505222932 25 22 0.0 4.8 0.00 0.00 0.00 45 1012.5
20260505221436 26 20 0.0 4.8 0.00 0.00 0.00 44 1012.5
20260505215923 26 21 0.0 6.4 0.00 0.00 0.00 44 1012.6
20260505214439 26 72 0.0 9.7 0.00 0.00 0.00 44 1012.8
20260505213006 26 350 0.0 8.0 0.00 0.00 0.00 44 1012.9
20260505211434 27 20 1.6 9.7 0.00 0.00 0.00 40 1013.0
20260505205918 27 43 0.0 1.6 0.00 0.00 0.00 45 1013.0
20260505204432 26 25 1.6 8.0 0.00 0.00 0.00 44 1013.2
20260505202924 27 63 1.6 8.0 0.00 0.00 0.00 43 1013.4
20260505201422 27 34 3.2 9.7 0.00 0.00 0.00 41 1013.4
20260505195951 27 65 3.2 9.7 0.00 0.00 0.00 42 1013.5
20260505194444 27 86 0.0 6.4 0.00 0.00 0.00 44 1013.7
20260505192935 27 28 0.0 8.0 0.00 0.00 0.00 42 1014.0
20260505191418 26 132 1.6 9.7 0.00 0.00 0.00 43 1014.4
20260505185951 27 21 0.0 9.7 0.00 0.00 0.00 42 1014.6
20260505184512 27 276 3.2 12.9 0.00 0.00 0.00 41 1015.0
20260505182928 26 49 1.6 6.4 0.00 0.00 0.00 50 1015.1
20260505181428 26 22 0.0 4.8 0.00 0.00 0.00 49 1015.1
20260505175933 27 31 6.4 9.7 0.00 0.00 0.00 46 1014.9
20260505174429 26 55 3.2 11.3 0.00 0.00 0.00 45 1014.9
20260505173009 26 149 0.0 8.0 0.00 0.00 0.00 48 1015.1
20260505171433 25 112 1.6 9.7 0.00 0.00 0.00 47 1015.2
20260505165943 26 15 0.0 4.8 0.00 0.00 0.00 49 1015.5
20260505164426 25 26 1.6 6.4 0.00 0.00 0.00 49 1015.6
20260505162956 25 195 0.0 4.8 0.00 0.00 0.00 54 1015.8
20260505161457 25 40 1.6 6.4 0.00 0.00 0.00 53 1016.1
20260505152949 23 22 0.0 3.2 0.00 0.00 0.00 64 1016.1
20260505151444 22 24 0.0 4.8 0.00 0.00 0.00 63 1016.2
20260505124416 16 32 0.0 0.0 0.00 0.00 0.00 85 1015.8
20260505123011 14 32 0.0 0.0 0.00 0.00 0.00 88 1015.8
20260505121425 13 54 0.0 0.0 0.00 0.00 0.00 89 1015.7
20260505115939 13 54 0.0 0.0 0.00 0.00 0.00 90 1015.5
20260505114425 12 54 0.0 0.0 0.00 0.00 0.00 91 1015.6
20260505112942 12 54 0.0 0.0 0.00 0.00 0.00 91 1015.5
20260505111425 11 54 0.0 0.0 0.00 0.00 0.00 91 1015.5